Погода в Кольчугине

Россия / Республика Крым     44°56′45″N   33°47′37″E
темп.,
°C
ветер,
м/с
пор.,
м/с
влажн.,
%
обл.,
%
осадки,
мм/ч
давл.,
гПа
погр.,
м
24 июля, сб
сб2400:00+19св33540 0.0 101345
03:00+18в22550 0.0 101425
06:00+17всв22590 0.0 101432
09:00+24св34450 0.0 1014597
12:00+27ссв34340 0.0 10132059
15:00+28сз44330 0.0 10131948
18:00+28св66310 0.0 10131867
21:00+22в47430 0.0 1014100
25 июля, вс
вс2500:00+20всв33470 0.0 101541
03:00+19всв34510 0.0 101558
06:00+19всв35600 0.0 101578
09:00+26св68500 0.0 1016819
12:00+30св56320 0.0 10162268
15:00+32св66270 0.0 10152782
18:00+30всв76330 0.0 10152133
21:00+23всв49520 0.0 1016158
26 июля, пн
пн2600:00+21всв48610 0.0 1017153
03:00+20св496615 0.0 1017187
06:00+20всв410730 0.0 1016195
09:00+28всв69470 0.0 1016830
12:00+31всв89361 0.0 10161835
15:00+32св88329 0.0 10162517
18:00+30св79380 0.0 10161422
21:00+25св47503 0.0 1017125
27 июля, вт
вт2700:00+23ссв48630 0.0 1017161
03:00+22св411680 0.0 1017253
06:00+21св49685 0.0 1017198
09:00+28св68501 0.0 1017724
12:00+32ссв56333 0.0 10171974
15:00+33св76285 0.0 10162616
18:00+32св66325 0.0 10172039
21:00+25всв48440 0.0 1017145
28 июля, ср
ср2800:00+23всв35520 0.0 101874
03:00+22всв46530 0.0 101894
06:00+22вюв33480 0.0 101732
09:00+29ююз22390 0.0 1018476
12:00+30з53370 0.0 1017978
15:00+30з66420 0.0 1017771
18:00+27зюз56455 0.0 1017583
21:00+23ююз22585 0.0 101714